Middletown, PA

9:06 AM EDT on April 25, 2018 (GMT -0400)
Harrisburg International

Weather History for KMDT - November, 2011

Change the Weather History Date:

Wednesday, November 9, 2011

  Actual Average Record
Temperature  
Mean Temperature 50 °F 47 °F  
Max Temperature 64 °F 56 °F 75 °F (1895)
Min Temperature 35 °F 37 °F 23 °F (1992)
Degree Days  
Heating Degree Days 15 18  
Month to date heating degree days 163 153  
Since 1 July heating degree days 546 565  
Cooling Degree Days 0 0  
Month to date cooling degree days 0 0  
Year to date cooling degree days 1246 1002  
Moisture  
Dew Point 40 °F    
Average Humidity 72    
Maximum Humidity 100    
Minimum Humidity 44    
Precipitation  
Precipitation 0.00 in 0.10 in 1.16 in (1889)
Month to date precipitation 0.00 0.92  
Year to date precipitation 65.97 35.20  
Snow  
Snow 0.00 in 0.10 in 4.80 in (1892)
Month to date snowfall 0.0 0.1  
Since 1 July snowfall 5.5 0.1  
Since 1 September snowfall 5.5 0.1  
Snow Depth 0.00 in    
Sea Level Pressure  
Sea Level Pressure 30.12 in    
Wind  
Wind Speed 4 mph (ESE)    
Max Wind Speed 13 mph    
Max Gust Speed 100 mph    
Visibility 6 miles    
Events Fog    
T = Trace of Precipitation, MM = Missing Value Source: NWS Daily Summary

Daily Weather History Graph

Daily Weather History Graph

Search for Another Location

Airport or City:

Astronomy

Nov. 09, 2011 Rise Set
Actual Time 6:45 AM EST 4:55 PM EST
Civil Twilight 6:16 AM EST 5:24 PM EST
Nautical Twilight 5:44 AM EST 5:56 PM EST
Astronomical Twilight 5:12 AM EST 6:28 PM EST
Moon 4:06 PM EST (11/9) 5:38 AM EST (11/9)
Length of Visible Light 11h 07m
Length of Day
10h 10m
Waxing Gibbous, 99% of the Moon is Illuminated
Nov 9
Waxing Gibbous
Nov 10
Full
Nov 18
Last Quarter
Nov 25
New
Dec 2
First Quarter

Hourly Weather History & Observations

Time (EST) Temp. Windchill Dew Point Humidity Pressure Visibility Wind Dir Wind Speed Gust Speed Precip Events Conditions
12:56 AM 41.0 °F - 39.9 °F 96% 30.20 in 8.0 mi Calm Calm - N/A   Clear
1:56 AM 37.4 °F 34.9 °F 35.6 °F 93% 30.19 in 6.0 mi East 3.5 mph - N/A   Clear
2:56 AM 39.9 °F - 39.0 °F 97% 30.19 in 6.0 mi Calm Calm - N/A   Clear
3:56 AM 36.0 °F 33.3 °F 35.1 °F 97% 30.19 in 6.0 mi ESE 3.5 mph - N/A Fog Patches of Fog
4:56 AM 35.1 °F 32.2 °F 34.0 °F 96% 30.18 in 6.0 mi ESE 3.5 mph - N/A Fog Patches of Fog
5:56 AM 35.1 °F 31.0 °F 33.1 °F 92% 30.18 in 6.0 mi ESE 4.6 mph - N/A Fog Patches of Fog
6:04 AM 35.6 °F 32.8 °F 33.8 °F 93% 30.17 in 2.5 mi ESE 3.5 mph - N/A Fog Patches of Fog
6:06 AM 35.6 °F - 33.8 °F 93% 30.17 in 0.8 mi Calm Calm - N/A Fog Patches of Fog
6:13 AM 35.6 °F - 35.6 °F 100% 30.17 in 0.2 mi Calm Calm - N/A Fog Fog
6:34 AM 37.4 °F - 37.4 °F 100% 30.17 in 1.2 mi Calm Calm - N/A   Overcast
6:38 AM 37.4 °F - 35.6 °F 93% 30.17 in 3.0 mi Calm Calm - N/A   Overcast
6:56 AM 36.0 °F - 36.0 °F 100% 30.18 in 0.2 mi Calm Calm - N/A   Mostly Cloudy
7:56 AM 39.0 °F - 39.0 °F 100% 30.19 in 0.5 mi Calm Calm - N/A Fog Fog
7:58 AM 39.2 °F - 39.2 °F 100% 30.18 in 1.0 mi Calm Calm - N/A   Mist
8:25 AM 41.0 °F - 39.2 °F 93% 30.18 in 4.0 mi Calm Calm - N/A   Clear
8:48 AM 42.8 °F 41.1 °F 41.0 °F 93% 30.18 in 3.0 mi SSE 3.5 mph - N/A   Partly Cloudy
8:56 AM 42.1 °F - 41.0 °F 96% 30.19 in 3.0 mi Calm Calm - N/A   Partly Cloudy
9:56 AM 50.0 °F - 44.1 °F 80% 30.18 in 4.0 mi ESE 3.5 mph - N/A   Haze
10:56 AM 55.9 °F - 43.0 °F 62% 30.16 in 9.0 mi SE 4.6 mph - N/A   Clear
11:56 AM 61.0 °F - 44.1 °F 54% 30.12 in 10.0 mi SE 9.2 mph - N/A   Clear
12:56 PM 62.1 °F - 44.1 °F 52% 30.08 in 10.0 mi SE 5.8 mph - N/A   Clear
1:56 PM 64.0 °F - 43.0 °F 46% 30.05 in 10.0 mi SE 8.1 mph - N/A   Partly Cloudy
2:56 PM 62.1 °F - 41.0 °F 46% 30.03 in 10.0 mi SSE 10.4 mph - N/A   Partly Cloudy
3:56 PM 60.1 °F - 43.0 °F 53% 30.02 in 10.0 mi SE 10.4 mph - N/A   Scattered Clouds
4:56 PM 54.0 °F - 41.0 °F 62% 30.01 in 10.0 mi SE 10.4 mph - N/A   Scattered Clouds
5:56 PM 52.0 °F - 43.0 °F 71% 30.02 in 10.0 mi SE 8.1 mph - N/A   Scattered Clouds
6:56 PM 46.9 °F - 41.0 °F 80% 30.02 in 9.0 mi ESE 5.8 mph - N/A   Mostly Cloudy
7:56 PM 48.0 °F - 42.1 °F 80% 30.01 in 9.0 mi Calm Calm - N/A   Mostly Cloudy
8:56 PM 45.0 °F - 43.0 °F 93% 30.01 in 8.0 mi Calm Calm - N/A   Scattered Clouds
9:56 PM 44.1 °F - 41.0 °F 89% 29.99 in 7.0 mi Calm Calm - N/A   Scattered Clouds
10:56 PM 46.0 °F 44.8 °F 44.1 °F 93% 29.98 in 6.0 mi ENE 3.5 mph - N/A   Overcast
11:56 PM 45.0 °F - 44.1 °F 97% 29.97 in 5.0 mi Calm Calm - N/A   Overcast